• In Österreich
  • Länderverzeichnis
  • Für 7 Tage
  • Wassertemperatur
  • Satellitenkarten
  • Wetterkarte
  • News
  • Widgets
  • user-avatar
    Anmelden

    Stündliche Wetter Toluca

    Heute, 19 September, Mittwoch

    Zeit Temperatur Niederschläge Wind Luftdruck Luftfeuchtigkeit
    00:00 +11°C° 0 mm 1 m/S 551 mmHg 87%
    01:00 +11°C° 0 mm 1 m/S 551 mmHg 87%
    02:00 +11°C° 0 mm 1 m/S 551 mmHg 87%
    03:00 +11°C° 0 mm 1 m/S 551 mmHg 87%
    04:00 +11°C° 0 mm 1 m/S 551 mmHg 87%
    05:00 +10°C° 0 mm 1 m/S 551 mmHg 88%
    06:00 +12°C° 0 mm 1 m/S 552 mmHg 83%
    07:00 +14°C° 0 mm 1 m/S 554 mmHg 77%
    08:00 +16°C° 0 mm 0 m/S 555 mmHg 72%
    09:00 +19°C° 0.1 mm 1 m/S 555 mmHg 65%
    10:00 +21°C° 0.1 mm 1 m/S 556 mmHg 58%
    11:00 +23°C° 0.1 mm 1 m/S 556 mmHg 52%
    12:00 +22°C° 0.6 mm 1 m/S 556 mmHg 55%
    13:00 +22°C° 0.6 mm 1 m/S 555 mmHg 59%
    14:00 +20°C° 0.6 mm 2 m/S 554 mmHg 62%
    15:00 +20°C° 1.5 mm 1 m/S 553 mmHg 69%
    16:00 +19°C° 1.5 mm 1 m/S 552 mmHg 76%
    17:00 +16°C° 1.5 mm 1 m/S 552 mmHg 83%
    18:00 +15°C° 1.3 mm 1 m/S 552 mmHg 85%
    19:00 +14°C° 1.3 mm 1 m/S 552 mmHg 86%
    20:00 +13°C° 1.3 mm 1 m/S 551 mmHg 87%
    21:00 +13°C° 0.7 mm 1 m/S 552 mmHg 87%
    22:00 +13°C° 0.7 mm 1 m/S 552 mmHg 88%
    23:00 +13°C° 0.7 mm 1 m/S 552 mmHg 88%

    Morgen, 20 September, Donnerstag

    Zeit Temperatur Niederschläge Wind Luftdruck Luftfeuchtigkeit
    00:00 +12°C° 0.3 mm 1 m/S 551 mmHg 88%
    01:00 +12°C° 0.3 mm 1 m/S 551 mmHg 88%
    02:00 +12°C° 0.3 mm 1 m/S 551 mmHg 88%
    03:00 +12°C° 0 mm 1 m/S 551 mmHg 88%
    04:00 +11°C° 0 mm 1 m/S 551 mmHg 88%
    05:00 +11°C° 0 mm 1 m/S 551 mmHg 88%
    06:00 +13°C° 0 mm 1 m/S 552 mmHg 83%
    07:00 +15°C° 0 mm 1 m/S 553 mmHg 77%
    08:00 +16°C° 0 mm 0 m/S 555 mmHg 72%
    09:00 +19°C° 0.3 mm 1 m/S 555 mmHg 67%
    10:00 +21°C° 0.3 mm 1 m/S 555 mmHg 63%
    11:00 +21°C° 0.3 mm 2 m/S 556 mmHg 59%
    12:00 +21°C° 1.4 mm 2 m/S 555 mmHg 63%
    13:00 +20°C° 1.4 mm 2 m/S 554 mmHg 66%
    14:00 +20°C° 1.4 mm 2 m/S 553 mmHg 70%
    15:00 +19°C° 2 mm 1 m/S 553 mmHg 75%
    16:00 +18°C° 2 mm 1 m/S 552 mmHg 80%
    17:00 +16°C° 2 mm 1 m/S 551 mmHg 85%
    18:00 +15°C° 1.4 mm 1 m/S 551 mmHg 86%
    19:00 +14°C° 1.4 mm 1 m/S 552 mmHg 87%
    20:00 +13°C° 1.4 mm 1 m/S 552 mmHg 87%
    21:00 +13°C° 0.6 mm 1 m/S 552 mmHg 88%
    22:00 +13°C° 0.6 mm 1 m/S 552 mmHg 88%
    23:00 +12°C° 0.6 mm 1 m/S 552 mmHg 88%

    übermorgen, 21 September, Freitag

    Zeit Temperatur Niederschläge Wind Luftdruck Luftfeuchtigkeit
    00:00 +12°C° 0 mm 1 m/S 551 mmHg 89%
    01:00 +12°C° 0 mm 1 m/S 551 mmHg 89%
    02:00 +11°C° 0 mm 1 m/S 550 mmHg 90%
    03:00 +11°C° 0 mm 1 m/S 550 mmHg 90%
    04:00 +11°C° 0 mm 1 m/S 551 mmHg 90%
    05:00 +11°C° 0 mm 1 m/S 551 mmHg 90%
    06:00 +13°C° 0 mm 1 m/S 552 mmHg 85%
    07:00 +15°C° 0 mm 1 m/S 553 mmHg 80%
    08:00 +18°C° 0 mm 1 m/S 554 mmHg 75%
    09:00 +20°C° 0 mm 1 m/S 555 mmHg 67%
    10:00 +21°C° 0 mm 1 m/S 556 mmHg 59%
    11:00 +23°C° 0 mm 2 m/S 556 mmHg 51%
    12:00 +23°C° 0.3 mm 2 m/S 555 mmHg 53%
    13:00 +23°C° 0.3 mm 2 m/S 554 mmHg 56%
    14:00 +21°C° 0.3 mm 2 m/S 554 mmHg 58%
    15:00 +20°C° 1.1 mm 2 m/S 553 mmHg 66%
    16:00 +18°C° 1.1 mm 2 m/S 552 mmHg 74%
    17:00 +18°C° 1.1 mm 1 m/S 551 mmHg 82%
    18:00 +15°C° 1.1 mm 1 m/S 551 mmHg 84%
    19:00 +14°C° 1.1 mm 1 m/S 552 mmHg 86%
    20:00 +13°C° 1.1 mm 1 m/S 552 mmHg 88%
    21:00 +13°C° 0.7 mm 1 m/S 552 mmHg 89%
    22:00 +13°C° 0.7 mm 1 m/S 552 mmHg 90%
    23:00 +12°C° 0.7 mm 1 m/S 552 mmHg 91%

    22 September, Samstag

    Zeit Temperatur Niederschläge Wind Luftdruck Luftfeuchtigkeit
    00:00 +12°C° 0.4 mm 1 m/S 551 mmHg 91%
    01:00 +12°C° 0.4 mm 1 m/S 551 mmHg 92%
    02:00 +12°C° 0.4 mm 1 m/S 551 mmHg 92%
    03:00 +12°C° 0.1 mm 1 m/S 551 mmHg 92%
    04:00 +12°C° 0.1 mm 1 m/S 551 mmHg 92%
    05:00 +11°C° 0.1 mm 1 m/S 551 mmHg 93%
    06:00 +13°C° 0 mm 1 m/S 552 mmHg 89%
    07:00 +14°C° 0 mm 1 m/S 553 mmHg 85%
    08:00 +16°C° 0 mm 1 m/S 554 mmHg 81%
    09:00 +18°C° 0.4 mm 1 m/S 554 mmHg 75%
    10:00 +19°C° 0.4 mm 1 m/S 555 mmHg 70%
    11:00 +20°C° 0.4 mm 2 m/S 555 mmHg 65%
    12:00 +20°C° 1.7 mm 2 m/S 554 mmHg 66%
    13:00 +21°C° 1.7 mm 1 m/S 554 mmHg 67%
    14:00 +21°C° 1.7 mm 1 m/S 553 mmHg 68%
    15:00 +20°C° 1.6 mm 1 m/S 553 mmHg 73%
    16:00 +18°C° 1.6 mm 1 m/S 552 mmHg 78%
    17:00 +16°C° 1.6 mm 1 m/S 551 mmHg 83%
    18:00 +15°C° 0.9 mm 1 m/S 552 mmHg 84%
    19:00 +14°C° 0.9 mm 1 m/S 552 mmHg 84%
    20:00 +13°C° 0.9 mm 1 m/S 552 mmHg 84%
    21:00 +13°C° 0.3 mm 1 m/S 552 mmHg 85%
    22:00 +12°C° 0.3 mm 1 m/S 551 mmHg 85%
    23:00 +12°C° 0.3 mm 1 m/S 551 mmHg 86%

    23 September, Sonntag

    Zeit Temperatur Niederschläge Wind Luftdruck Luftfeuchtigkeit
    00:00 +12°C° 0 mm 1 m/S 551 mmHg 87%
    01:00 +11°C° 0 mm 1 m/S 550 mmHg 87%
    02:00 +11°C° 0 mm 1 m/S 550 mmHg 88%
    03:00 +11°C° 0 mm 1 m/S 550 mmHg 88%
    04:00 +11°C° 0 mm 1 m/S 550 mmHg 88%
    05:00 +11°C° 0 mm 1 m/S 551 mmHg 88%
    06:00 +13°C° 0 mm 1 m/S 552 mmHg 84%
    07:00 +14°C° 0 mm 1 m/S 553 mmHg 80%
    08:00 +16°C° 0 mm 1 m/S 554 mmHg 75%
    09:00 +18°C° 0.1 mm 1 m/S 554 mmHg 70%
    10:00 +19°C° 0.1 mm 1 m/S 554 mmHg 65%
    11:00 +19°C° 0.1 mm 2 m/S 555 mmHg 61%
    12:00 +20°C° 0.5 mm 2 m/S 554 mmHg 61%
    13:00 +20°C° 0.5 mm 2 m/S 553 mmHg 61%
    14:00 +20°C° 0.5 mm 2 m/S 553 mmHg 62%
    15:00 +19°C° 0.8 mm 1 m/S 552 mmHg 68%
    16:00 +18°C° 0.8 mm 1 m/S 552 mmHg 75%
    17:00 +16°C° 0.8 mm 1 m/S 551 mmHg 81%
    18:00 +15°C° 0.6 mm 1 m/S 551 mmHg 83%
    19:00 +14°C° 0.6 mm 1 m/S 551 mmHg 85%
    20:00 +13°C° 0.6 mm 1 m/S 551 mmHg 86%
    21:00 +12°C° 0.4 mm 0 m/S 551 mmHg 87%
    22:00 +11°C° 0.4 mm 0 m/S 551 mmHg 88%
    23:00 +11°C° 0.4 mm 0 m/S 551 mmHg 89%

    24 September, Montag

    Zeit Temperatur Niederschläge Wind Luftdruck Luftfeuchtigkeit
    00:00 +11°C° 0.4 mm 0 m/S 551 mmHg 89%
    01:00 +11°C° 0.4 mm 0 m/S 551 mmHg 90%
    02:00 +11°C° 0.4 mm 0 m/S 551 mmHg 91%
    03:00 +11°C° 0.1 mm 0 m/S 551 mmHg 91%
    04:00 +10°C° 0.1 mm 0 m/S 551 mmHg 91%
    05:00 +11°C° 0.1 mm 1 m/S 551 mmHg 91%
    06:00 +13°C° 0 mm 1 m/S 552 mmHg 86%
    07:00 +14°C° 0 mm 1 m/S 553 mmHg 80%
    08:00 +15°C° 0 mm 1 m/S 554 mmHg 75%
    09:00 +18°C° 0.1 mm 1 m/S 554 mmHg 68%
    10:00 +20°C° 0.1 mm 1 m/S 555 mmHg 61%
    11:00 +20°C° 0.1 mm 2 m/S 555 mmHg 54%
    12:00 +20°C° 0.8 mm 2 m/S 554 mmHg 57%
    13:00 +20°C° 0.8 mm 2 m/S 553 mmHg 59%
    14:00 +19°C° 0.8 mm 2 m/S 552 mmHg 62%
    15:00 +18°C° 0.9 mm 2 m/S 552 mmHg 68%
    16:00 +18°C° 0.9 mm 1 m/S 551 mmHg 74%
    17:00 +16°C° 0.9 mm 1 m/S 551 mmHg 81%
    18:00 +15°C° 0.5 mm 1 m/S 551 mmHg 82%
    19:00 +14°C° 0.5 mm 1 m/S 551 mmHg 84%
    20:00 +13°C° 0.5 mm 1 m/S 551 mmHg 86%
    21:00 +13°C° 0.2 mm 1 m/S 551 mmHg 86%
    22:00 +12°C° 0.2 mm 1 m/S 551 mmHg 87%
    23:00 +12°C° 0.2 mm 1 m/S 551 mmHg 87%
    Mehr zeigen